OE7MFI-13 Weather Reports


time (UTC)temp
C
wind
direction
speed
KPH
gust
KPH
rain 1hr
cm
rain 24hr
cm
rain mn
cm
humidity
%
barometer
mb
20260502204353 10 0.0 0.0 0.00 0.00 0.00 70
20260502203347 10 0.0 0.0 0.00 0.00 0.00 69
20260502202352 10 0.0 0.0 0.00 0.00 0.00 66
20260502201345 11 0.0 0.0 0.00 0.00 0.00 67
20260502200353 11 0.0 0.0 0.00 0.00 0.00 64
20260502195345 11 0.0 0.0 0.00 0.00 0.00 64
20260502194353 11 0.0 0.0 0.00 0.00 0.00 62
20260502193345 12 0.0 0.0 0.00 0.00 0.00 61
20260502192353 12 0.0 0.0 0.00 0.00 0.00 59
20260502191405 13 0.0 0.0 0.00 0.00 0.00 57
20260502190354 13 0.0 0.0 0.00 0.00 0.00 55
20260502185344 14 0.0 0.0 0.00 0.00 0.00 53
20260502184355 15 0.0 0.0 0.00 0.00 0.00 52
20260502183345 15 0.0 0.0 0.00 0.00 0.00 50
20260502182414 16 0.0 0.0 0.00 0.00 0.00 49
20260502181422 17 0.0 0.0 0.00 0.00 0.00 46
20260502180354 17 0.0 0.0 0.00 0.00 0.00 43
20260502170354 20 304 0.0 1.6 0.00 0.00 0.00 36
20260502163345 21 202 0.0 1.6 0.00 0.00 0.00 34
20260502162353 21 215 1.6 3.2 0.00 0.00 0.00 34
20260502161345 21 227 1.6 1.6 0.00 0.00 0.00 34
20260502160413 22 193 1.6 3.2 0.00 0.00 0.00 32
20260502151345 23 170 1.6 3.2 0.00 0.00 0.00 26
20260502150353 23 196 1.6 1.6 0.00 0.00 0.00 27
20260502130353 25 22 0.0 0.0 0.00 0.00 0.00 22
20260502123405 24 0.0 0.0 0.00 0.00 0.00 24
20260502122353 24 328 0.0 0.0 0.00 0.00 0.00 25
20260502121345 23 349 0.0 0.0 0.00 0.00 0.00 26
20260502120353 23 170 0.0 0.0 0.00 0.00 0.00 26
20260502115345 23 55 0.0 0.0 0.00 0.00 0.00 26
20260502114412 23 307 0.0 0.0 0.00 0.00 0.00 25
20260502113345 23 1 0.0 0.0 0.00 0.00 0.00 25
20260502112353 23 34 0.0 0.0 0.00 0.00 0.00 28
20260502111347 23 1 0.0 0.0 0.00 0.00 0.00 28
20260502110355 23 337 0.0 0.0 0.00 0.00 0.00 28
20260502105405 22 307 0.0 0.0 0.00 0.00 0.00 28
20260502104353 22 339 0.0 0.0 0.00 0.00 0.00 30
20260502103345 22 0.0 0.0 0.00 0.00 0.00 30
20260502102353 22 20 0.0 0.0 0.00 0.00 0.00 29
20260502101345 21 352 0.0 1.6 0.00 0.00 0.00 28
20260502100355 21 30 0.0 0.0 0.00 0.00 0.00 30
20260502091345 19 84 0.0 0.0 0.00 0.00 0.00 40
20260502090353 18 13 0.0 0.0 0.00 0.00 0.00 41
20260502071346 12 334 0.0 0.0 0.00 0.00 0.00 62
20260502070353 11 0.0 0.0 0.00 0.00 0.00 70
20260502065345 9 236 0.0 0.0 0.00 0.00 0.00 73
20260502064353 8 15 0.0 0.0 0.00 0.00 0.00 75
20260502063347 6 0.0 0.0 0.00 0.00 0.00 81
20260502062414 6 299 0.0 1.6 0.00 0.00 0.00 84
20260502060413 4 0.0 0.0 0.00 0.00 0.00 84
20260502055345 3 0.0 0.0 0.00 0.00 0.00 87
20260502054433 2 0.0 0.0 0.00 0.00 0.00 87
20260502053345 1 0.0 0.0 0.00 0.00 0.00 89
20260502052353 0 0.0 0.0 0.00 0.00 0.00 88
20260502051346 0 0.0 0.0 0.00 0.00 0.00 88
20260502050353 0 0.0 0.0 0.00 0.00 0.00 87
20260502045346 0 0.0 0.0 0.00 0.00 0.00 87
20260502044352 0 0.0 0.0 0.00 0.00 0.00 87
20260502043345 0 0.0 0.0 0.00 0.00 0.00 88
20260502042352 0 0.0 0.0 0.00 0.00 0.00 88
20260502041346 0 0.0 0.0 0.00 0.00 0.00 88
20260502040353 0 0.0 0.0 0.00 0.00 0.00 89
20260502035345 0 0.0 0.0 0.00 0.00 0.00 89
20260502034355 0 0.0 0.0 0.00 0.00 0.00 89
20260502033345 0 0.0 0.0 0.00 0.00 0.00 88
20260502032353 0 0.0 0.0 0.00 0.00 0.00 88
20260502031344 0 0.0 0.0 0.00 0.00 0.00 87
20260502030413 0 0.0 0.0 0.00 0.00 0.00 87
20260502025405 0 0.0 0.0 0.00 0.00 0.00 87
20260502024353 1 0.0 0.0 0.00 0.00 0.00 87
20260502023407 1 0.0 0.0 0.00 0.00 0.00 87
20260502022352 1 0.0 0.0 0.00 0.00 0.00 87
20260502021344 1 0.0 0.0 0.00 0.00 0.00 87
20260502020414 1 0.0 0.0 0.00 0.00 0.00 86
20260502015345 1 0.0 0.0 0.00 0.00 0.00 86
20260502014352 1 0.0 0.0 0.00 0.00 0.00 86
20260502013344 1 0.0 0.0 0.00 0.00 0.00 86
20260502012354 1 0.0 0.0 0.00 0.00 0.00 86
20260502011445 1 0.0 0.0 0.00 0.00 0.00 85
20260502010352 2 0.0 0.0 0.00 0.00 0.00 85
20260502005344 2 0.0 0.0 0.00 0.00 0.00 85
20260502004353 2 0.0 0.0 0.00 0.00 0.00 84
20260502003344 2 0.0 0.0 0.00 0.00 0.00 85
20260502002352 2 0.0 0.0 0.00 0.00 0.00 85
20260502001344 2 0.0 0.0 0.00 0.00 0.00 85
20260502000354 2 0.0 0.0 0.00 0.00 0.00 85
20260501235405 2 0.0 0.0 0.00 0.00 0.00 84
20260501234352 2 0.0 0.0 0.00 0.00 0.00 83
20260501233344 3 0.0 0.0 0.00 0.00 0.00 82
20260501232353 3 0.0 0.0 0.00 0.00 0.00 82
20260501231426 3 0.0 0.0 0.00 0.00 0.00 82
20260501230352 3 0.0 0.0 0.00 0.00 0.00 82
20260501225344 3 0.0 0.0 0.00 0.00 0.00 81
20260501224353 3 0.0 0.0 0.00 0.00 0.00 82
20260501223344 3 0.0 0.0 0.00 0.00 0.00 81
20260501222352 3 0.0 0.0 0.00 0.00 0.00 81
20260501221344 4 0.0 0.0 0.00 0.00 0.00 80
20260501220352 4 0.0 0.0 0.00 0.00 0.00 80
20260501215345 5 0.0 0.0 0.00 0.00 0.00 79
20260501214352 5 0.0 0.0 0.00 0.00 0.00 78
20260501213344 5 0.0 0.0 0.00 0.00 0.00 77
20260501212354 5 0.0 0.0 0.00 0.00 0.00 77
20260501211344 5 0.0 0.0 0.00 0.00 0.00 77
20260501210354 5 0.0 0.0 0.00 0.00 0.00 76
20260501205345 6 0.0 0.0 0.00 0.00 0.00 74